Regional Weather Roundup
Issued by NWS Portland, ME

Home | Current Version | Previous Version | Text Only | Print | Product List | Glossary On
Versions: 1 2 3 4 5 6 7 8 9 10 11 12 13 14 15 16 17 18 19 20 21 22 23 24 25 26 27 28 29 30 31 32 33 34 35 36 37 38 39 40 41 42 43 44 45 46 47 48 49 50
000
ASUS41 KGYX 020405
RWRGYX
WEATHER ROUNDUP FOR MAINE AND NEW HAMPSHIRE
NATIONAL WEATHER SERVICE GRAY ME
1200 AM EDT THU JUL 02 2015

MEZ002-005-006-010-012-015-018-020-021-024-026-027-029-020500-
MAINE

CITY           SKY/WX    TMP DP  RH WIND       PRES   REMARKS
PORTLAND       CLEAR     65  63  93 SW7       29.72R
SANFORD        CLEAR     63  57  82 SW5       29.75R
BAR HARBOR     CLOUDY    59  59 100 S5        29.72S VSB 1/2
WISCASSET      FOG       60  59  96 CALM      29.72S VSB 1/2
ROCKLAND       CLOUDY    55  54  94 CALM      29.70S VSB 1/2
FRYEBURG       CLEAR     59  58  96 SW7       29.72R
LEWISTONAUBURN CLOUDY    63  61  94 CALM      29.70S VSB 1/2
AUGUSTA        FOG       62  61  96 S5        29.70S VSB 1/4
BANGOR         FOG       60  59  96 S5        29.70S VSB 1/4
GREENVILLE       N/A     59  59 100 S6        29.67F
MILLINOCKET    CLOUDY    62  61  96 CALM      29.69S
HOULTON        CLOUDY    60  58  92 S6        29.67S
PRESQUE ISLE   CLOUDY    61  55  82 S7        29.65S
FRENCHVILLE    CLOUDY    58  57  97 S13G18    29.63F
CARIBOU        CLOUDY    60  58  92 S8        29.64F
$$

NHZ002-005-008-009-011-012-014-020500-
NEW HAMPSHIRE

CITY           SKY/WX    TMP DP  RH WIND       PRES   REMARKS
PORTSMOUTH     MOCLDY    64  61  89 SW8       29.74S
ROCHESTER      PTCLDY    62  60  93 CALM      29.75R
NASHUA         PTCLDY    64  61  90 VRB6      29.81R
MANCHESTER     PTCLDY    65  61  87 SW6       29.77R
CONCORD        CLEAR     64  59  83 SW8       29.77R
LACONIA        CLEAR     64  57  77 SW6       29.75R
PLYMOUTH       FAIR      63  62  98 CALM      29.76R
BERLIN         CLOUDY    63  57  81 W8        29.74R
WHITEFIELD     CLOUDY    62  58  86 SW3       29.77R
JAFFREY        CLEAR     59  57  93 VRB3      29.84R
KEENE          PTCLDY    61  55  82 SE5       29.82R
LEBANON        CLOUDY    65  57  75 S8        29.78R
MT WASHINGTON  LGT RAIN  45  45 100 W54G67      N/A  VSB 0
$$

VTZ005-007-008-020500-
VERMONT

CITY           SKY/WX    TMP DP  RH WIND       PRES   REMARKS
ST JOHNSBURY     N/A     62  58  86 MISG      29.75R
MONTPELIER     CLOUDY    62  54  74 W8        29.82R
BURLINGTON     CLOUDY    65  56  72 W5        29.77S
$$

MAZ007-012-024-CTZ003-RIZ002-NYZ038-NYZ072-020500-
SOUTHERN NEW ENGLAND AND NY

CITY           SKY/WX    TMP DP  RH WIND       PRES   REMARKS
BOSTON         MOCLDY    70  60  70 W14G22    29.81R
WORCESTER      MOCLDY    65  56  72 W10       29.86R
NANTUCKET      PTCLDY    68  65  90 SW14      29.84R
PROVIDENCE     MOCLDY    71  65  81 W6        29.83R
HARTFORD       PTCLDY    68  57  68 W7        29.84R
ALBANY         PTCLDY    66  56  70 W13       29.85R
NEW YORK CITY  CLOUDY    78  58  49 W12G20    29.86R
$$

ANZ081-ANZ082-ANZ150-NHZ014-MEZ023>029-020500-
COASTAL MARINE OBSERVATIONS

STATION/POSITION TIME  TEMP    WIND        PRES    WAVE
                       AIR SEA DIR/SP/G            HT/PER
                 (UTC) (F)     (DEG/KT/KT) (MB)    (FT/S)
MOUNT DESERT ROC 0400   56     200/  9/ 10 1006.6F
MATINICUS ROCK   0300   55     240/  9/ 11 1006.3F
ISLE OF SHOALS   0300   64     220/ 14/ 14 1006.9R
JEFFREYS LEDGE   0303      58                N/A     3/ 8
CASHES LEDGE BUO 0350   61 56              1006.4R   3/ 5
GEORGES BANK BUO 0250   68 58  210/ 16/ 17 1011.2    7/ 9
$$

.............KEY..............
   WCI - WIND CHILL
   TC  - TEMPERATURE IN CELSIUS
   VSB - VISIBILITY IN MILES
   HX  - HEAT INDEX
   FAIR- INDICATES FEW OR NO CLOUDS BELOW 12,000 FT, WITH NO
         SIGNIFICANT WEATHER AND/OR OBSTRUCTIONS TO VISIBILITY.





USA.gov is the U.S. government's official web portal to all federal, state and local government web resources and services.